Hourly Data Report for June 29, 2004

TORONTO CITY
ONTARIO

43°40'00.000" N
79°24'00.000" W
112.50 m
6158355
71508
XTO

Download Data

Hourly Data (June 2004)
Hourly Data Report for June 29, 2004
TIME
LST
Temp Definition
°C
Dew Point Definition
°C
Rel Hum Definition
%
Precip. Amount Definition
mm

Wind Dir Definition
10's deg

Wind Spd Definition
km/h
Visibility Definition
km
Stn Press Definition
kPa
Hmdx Definition


Wind Chill Definition


Weather Definition


00:00 13.5 12.6 94   LegendMM LegendMM LegendMM 100.34     LegendNANA
01:00 14.1 11.3 83   LegendMM LegendMM LegendMM 100.33     LegendNANA
02:00 12.5 10.9 90   LegendMM LegendMM LegendMM 100.33     LegendNANA
03:00 12.3 10.9 91   LegendMM LegendMM LegendMM 100.31     LegendNANA
04:00 12.2 10.7 91   LegendMM LegendMM LegendMM 100.30     LegendNANA
05:00 12.2 10.6 90   LegendMM LegendMM LegendMM 100.29     LegendNANA
06:00 13.6 11.0 84   LegendMM LegendMM LegendMM 100.27     LegendNANA
07:00 15.8 12.2 79   LegendMM LegendMM LegendMM 100.23     LegendNANA
08:00 17.1 12.4 74   LegendMM LegendMM LegendMM 100.21     LegendNANA
09:00 18.6 12.4 67   LegendMM LegendMM LegendMM 100.19     LegendNANA
10:00 19.5 12.6 64   LegendMM LegendMM LegendMM 100.11     LegendNANA
11:00 20.9 12.8 60   LegendMM LegendMM LegendMM 100.10     LegendNANA
12:00 22.3 13.2 56   LegendMM LegendMM LegendMM 100.10 25   LegendNANA
13:00 21.7 13.9 61   LegendMM LegendMM LegendMM 100.16 25   LegendNANA
14:00 23.1 13.9 56   LegendMM LegendMM LegendMM 100.17 26   LegendNANA
15:00 23.4 13.3 53   LegendMM LegendMM LegendMM 100.18 26   LegendNANA
16:00 24.1 13.1 50   LegendMM LegendMM LegendMM 100.19 27   LegendNANA
17:00 23.8 10.6 43   LegendMM LegendMM LegendMM 100.19 25   LegendNANA
18:00 22.8 9.2 42   LegendMM LegendMM LegendMM 100.24     LegendNANA
19:00 22.0 7.9 40   LegendMM LegendMM LegendMM 100.29     LegendNANA
20:00 20.7 9.6 49   LegendMM LegendMM LegendMM 100.34     LegendNANA
21:00 20.2 10.6 54   LegendMM LegendMM LegendMM 100.40     LegendNANA
22:00 18.7 9.2 54   LegendMM LegendMM LegendMM 100.44     LegendNANA
23:00 17.2 8.6 57   LegendMM LegendMM LegendMM 100.45     LegendNANA

Notes on Data Quality.

Legend

  • E = Estimated
  • M = Missing
  • NA = Not Available*
  • [empty] = Indicates an unobserved value
Date modified: